Location: Newark
(23.3970°S, 47.6010°W)
Time: 12:13:49
(UTC+00:00)

Courier 1B Rocket - Visible Passes

Search period start: 17 February 2020 00:00
Search period end: 27 February 2020 00:00
Orbit: 920 x 1202 km, 28.2° (Epoch: 16 February)

Date Brightness Start Highest point End Pass type
(mag) Time Alt. Az. Time Alt. Az. Time Alt. Az.
17 Feb 6.5 00:17:54 10° W 00:21:52 24° NW 00:21:52 24° NW visible
17 Feb 5.8 23:16:12 10° W 23:22:07 37° NNW 23:24:40 27° NNE visible
18 Feb 5.5 22:14:41 10° W 22:21:12 54° NNW 22:27:20 10° NE visible
19 Feb 6.9 00:10:28 10° WNW 00:13:54 16° NW 00:13:54 16° NW visible
19 Feb 6.5 23:08:05 10° W 23:13:18 25° NNW 23:16:47 16° NNE visible
20 Feb 6.1 22:06:14 10° W 22:12:25 37° NNW 22:18:15 10° NE visible
21 Feb 7.0 23:00:35 10° WNW 23:04:27 16° NNW 23:08:11 10° N visible
22 Feb 6.7 21:58:05 10° W 22:03:33 25° NNW 22:08:46 10° NNE visible
